* Astronomy

Members Login
Username 
 
Password 
    Remember Me  
Post Info TOPIC: KOSMOS 2176 satellite re-entry


L

Posts: 131433
Date:
RE: KOSMOS 2176 satellite re-entry
Permalink  
 


Update:
The Kosmos 2176 satellite re-entered the Earths atmosphere on the 17th January, 2012 @ 08:49 GMT  ± 1 minute.

Inclination: 62.06°
Revolution Number: 14703
Predicted Location:  0°N, 142°E



__________________


L

Posts: 131433
Date:
Permalink  
 

Update:
The Kosmos 2176 satellite re-entered the Earths atmosphere on the 17th January, 2012 @ --:-- GMT  ± -- hours.

KOSMOS 2176
1 21847U 92003A   12017.32172832  .40679130  66468-5  10000-3 0  9433
2 21847 062.0296 030.4716 0405617 255.3093 197.4067 15.75943036147032

Inclination: 62.06°
Revolution Number: 14689
Predicted Location:  58.9°N, 99.3°E



__________________


L

Posts: 131433
Date:
Permalink  
 

Update:
The Kosmos 2176 satellite is predicted to re-enter the Earths atmosphere on the 16th January, 2012 @ 04:05 GMT  ± 48 hours.

KOSMOS 2176
1 21847U 92003A   12016.74483233  .99999999  56856-5  81493-3 0  9366
2 21847 062.0572 032.3708 1470720 253.6811 127.3854 13.19867279146954

Period:       117.04 minutes
Inclination: 62.06°
Apogee:     3022 km
Perigee:     74 km
Revolution Number: 14689
Predicted Location:  58.9°N, 99.3°E



__________________


L

Posts: 131433
Date:
Permalink  
 

The Kosmos 2176 early warning satellite that was launched on the 24th January, 1992, from the Plesetsk cosmodrome is predicted to re-enter the Earths atmosphere on the 16th January, 2012 @ 04:17 GMT  ± 48 hours.

KOSMOS 2176
1 21847U 92003A   12013.62093891  .55944751 -49908-6  12260-2 0  8978
2 21847 062.1035 038.0177 3776011 252.2342 195.4003 08.21953755146628

Period:       184.81 minutes
Inclination: 62.08°
Apogee:     8661 km
Perigee:     78 km
Revolution Number: 14689
Predicted Location:  52.6°S, 170.6°E



__________________
Page 1 of 1  sorted by
 
Quick Reply

Please log in to post quick replies.



Create your own FREE Forum
Report Abuse
Powered by ActiveBoard